NIMBUS 2 DEB, 42435

Orbit data source: Space-Track

NIMBUS 2 DEB, 42435 is space debris in SSO originally from a launch on Sun, 15 May 1966 UTC launched from the Air Force Western Test Range (AFWTR). Debris objects in space refer to the collection of defunct objects orbiting the Earth. Examples of debris include non-operational satellites, rocket bodies, and fragments generated from explosions, collisions, or faulty payload assembly.

Loading next visibility...
Identifier
42435, 1966-040BN
Orbit
SSO
Country
Flag of USUS
Related business
Manufacturer
Unknown
Mission
Spacecraft
Bus & Motor
Unknown
Mass
Unknown
Launch date (UTC)
1966-05-15 (60 years ago)
Launch vehicle
Unknown
Launch site
Air Force Western Test Range (AFWTR)
Object type
Payload
Rocket body
Debris
Shape & HBR
Unknown shape, 0.1 m
Radar Cross Section
Small (<0.1 m²)

Expand to show TLE details & history
Last TLE update: 17 hours ago

TLE from 17 hours ago
0 NIMBUS 2 DEB
1 42435U 66040BN  26130.21812389  .00001461  00000-0  25982-2 0  9990
2 42435 100.2025 295.3056 0049676 261.9886  97.5604 13.43674186470502
Epoch: 2026-05-10T05:14Z
TLE epoch observation values (Epoch: 2026-05-10T05:14:05.904Z)
Latitude
-0.00003°
Longitude
-11.24336°
Altitude
1,103.45 km
Speed
7.298 km/s
True Right ascension
19h 41m 13s
True Declination
0° 00' 00"
Sunlit
Object was in daylight at epoch
Visualization orbit readout
Latitude
Unknown
Longitude
Unknown
Altitude
Unknown
Speed
Unknown
Apparent Right ascension
Unknown
Apparent Declination
Unknown
Sunlit
N/A
Visualization observer readout
Local Sidereal Time
06:58:19
Azimuth
Unknown
Elevation
Unknown
Doppler factor
Unknown
Orbital elements
Apogee altitude
1,130.073 km
Perigee altitude
1,055.846 km
Semi-major axis
7,471.097 km
Eccentricity
0.00497
Inclination
100.2025°
RAAN
295.3056°
Arg. of periapsis
261.9886°
True anomaly
98.12423°
Mean anomaly
97.5604°
Eccentric anomaly
97.84236°
Mean motion
3.36099 °/min
Orbital period
107.11 mins
BSTAR
0.0025982
Loading maneuver chart data...
Computing Atmospheric mass density...
Loading historical data...
Loading historical data...
Loading historical data...
Loading historical data...
Loading historical data...
Loading historical data...
Loading historical data...

Documentation

Showing up to 5 results
|